KB0UOA Weather Reports


Display with metric or nautical units.
time (UTC)temp
F
wind
direction
speed
MPH
gust
MPH
rain 1hr
in
rain 24hr
in
rain mn
in
humidity
%
barometer
mb
20260506102604 44 84 0.0 4.0 0.00 0.22 0.21 89 1015.8
20260506102504 44 87 0.0 4.0 0.00 0.22 0.21 89 1015.7
20260506102404 44 88 1.0 4.0 0.00 0.22 0.21 89 1015.7
20260506102305 44 87 1.0 4.0 0.00 0.22 0.21 89 1015.7
20260506102204 44 85 1.0 4.0 0.00 0.22 0.21 89 1015.7
20260506102104 44 87 1.0 4.0 0.00 0.22 0.21 89 1015.7
20260506102005 44 87 1.0 4.0 0.00 0.22 0.21 89 1015.6
20260506101905 44 88 1.0 4.0 0.00 0.22 0.21 89 1015.6
20260506101805 44 88 1.0 4.0 0.00 0.22 0.21 90 1015.6
20260506101705 44 87 1.0 5.0 0.00 0.22 0.21 89 1015.6
20260506101605 44 87 1.0 5.0 0.00 0.22 0.21 90 1015.6
20260506101505 44 87 1.0 5.0 0.00 0.22 0.21 90 1015.7
20260506101405 44 84 1.0 5.0 0.00 0.22 0.21 90 1015.7
20260506101305 44 73 1.0 5.0 0.00 0.22 0.21 90 1015.9
20260506101105 44 73 1.0 5.0 0.00 0.22 0.21 90 1015.9
20260506101005 44 74 1.0 5.0 0.00 0.22 0.21 90 1015.9
20260506100805 44 65 1.0 5.0 0.00 0.22 0.21 90 1016.1
20260506100705 44 48 1.0 3.0 0.00 0.22 0.21 90 1016.1
20260506100604 44 55 1.0 3.0 0.00 0.22 0.21 90 1016.2
20260506100504 44 60 1.0 3.0 0.00 0.22 0.21 90 1016.2
20260506100204 44 80 1.0 3.0 0.00 0.22 0.21 90 1016.1
20260506100104 44 80 1.0 5.0 0.00 0.22 0.21 90 1016.0
20260506100005 44 79 1.0 5.0 0.00 0.22 0.21 90 1015.9
20260506095904 44 83 1.0 5.0 0.00 0.22 0.21 90 1015.9
20260506095804 44 85 1.0 5.0 0.00 0.22 0.21 90 1015.9
20260506095605 44 89 1.0 5.0 0.00 0.22 0.21 90 1015.6
20260506095505 44 78 1.0 5.0 0.00 0.22 0.21 90 1015.6
20260506095404 44 72 1.0 5.0 0.00 0.22 0.21 90 1015.6
20260506095306 44 61 1.0 5.0 0.00 0.22 0.21 90 1015.6
20260506095204 44 48 1.0 5.0 0.00 0.22 0.21 90 1015.6
20260506095104 44 25 1.0 4.0 0.00 0.22 0.21 90 1015.7
20260506095004 44 19 1.0 4.0 0.00 0.22 0.21 90 1015.8
20260506094904 44 12 1.0 4.0 0.00 0.22 0.21 90 1016.0
20260506094804 44 16 1.0 4.0 0.00 0.22 0.21 90 1016.1
20260506094704 44 9 1.0 4.0 0.00 0.22 0.21 90 1016.2
20260506094604 44 9 1.0 4.0 0.00 0.22 0.21 90 1016.3
20260506094504 44 11 1.0 4.0 0.00 0.22 0.21 90 1016.2
20260506094405 44 14 1.0 4.0 0.00 0.22 0.21 90 1016.2
20260506094305 44 20 1.0 4.0 0.00 0.22 0.21 90 1016.1
20260506094205 44 26 1.0 4.0 0.00 0.22 0.21 90 1016.1
20260506094104 44 33 1.0 4.0 0.00 0.22 0.21 90 1016.0
20260506094004 44 39 1.0 4.0 0.00 0.22 0.21 90 1015.9
20260506093904 44 48 1.0 4.0 0.00 0.22 0.21 90 1016.0
20260506093705 44 70 1.0 4.0 0.00 0.22 0.21 90 1015.9
20260506093505 44 91 0.0 4.0 0.00 0.22 0.21 90 1015.8
20260506093304 44 89 1.0 4.0 0.00 0.22 0.21 90 1015.7
20260506093205 44 69 1.0 4.0 0.00 0.22 0.21 90 1015.7
20260506093104 44 60 1.0 4.0 0.00 0.22 0.21 90 1015.7
20260506093004 44 60 1.0 4.0 0.00 0.22 0.21 90 1015.7
20260506092904 44 48 1.0 4.0 0.00 0.22 0.21 90 1015.7
20260506092804 44 45 0.0 4.0 0.00 0.22 0.21 90 1015.8
20260506092705 44 37 0.0 4.0 0.01 0.22 0.21 90 1015.9
20260506092604 44 47 1.0 5.0 0.01 0.22 0.21 90 1016.0
20260506092405 44 48 1.0 5.0 0.01 0.22 0.21 90 1016.2
20260506092306 44 50 1.0 5.0 0.01 0.22 0.21 90 1016.2
20260506092204 44 49 1.0 5.0 0.01 0.22 0.21 90 1016.1
20260506092104 44 56 1.0 5.0 0.01 0.22 0.21 90 1016.0
20260506092004 44 57 1.0 5.0 0.01 0.22 0.21 90 1015.9
20260506091904 44 69 1.0 5.0 0.01 0.22 0.21 90 1015.9
20260506091704 44 70 1.0 5.0 0.01 0.22 0.21 90 1015.9
20260506091604 44 67 0.0 3.0 0.01 0.22 0.21 90 1016.0
20260506091505 44 67 0.0 3.0 0.01 0.22 0.21 90 1016.0
20260506091404 44 61 0.0 3.0 0.01 0.22 0.21 90 1016.0
20260506091205 44 90 0.0 7.0 0.02 0.22 0.21 90 1016.0
20260506091104 44 90 1.0 7.0 0.02 0.22 0.21 90 1016.1
20260506091004 44 90 1.0 7.0 0.02 0.22 0.21 90 1016.1
20260506090904 44 90 1.0 7.0 0.02 0.22 0.21 90 1016.2
20260506090504 44 92 1.0 7.0 0.02 0.22 0.21 90 1016.1
20260506090304 44 91 0.0 7.0 0.02 0.22 0.21 90 1016.0
20260506090204 44 94 0.0 3.0 0.02 0.22 0.21 90 1015.9
20260506090004 44 89 0.0 3.0 0.03 0.22 0.21 91 1016.0
20260506085904 44 89 0.0 3.0 0.03 0.22 0.21 91 1016.0
20260506085805 44 86 0.0 3.0 0.03 0.22 0.21 91 1016.0
20260506085704 44 74 0.0 2.0 0.03 0.22 0.21 91 1016.2
20260506085604 44 69 0.0 2.0 0.03 0.22 0.21 91 1016.3
20260506085504 44 65 0.0 2.0 0.03 0.22 0.21 91 1016.4
20260506085404 44 64 0.0 3.0 0.03 0.22 0.21 91 1016.5
20260506085306 44 71 1.0 3.0 0.03 0.22 0.21 91 1016.5
20260506085204 44 73 1.0 3.0 0.03 0.22 0.21 91 1016.6
20260506085104 44 72 1.0 3.0 0.03 0.22 0.21 91 1016.5
20260506085004 44 61 1.0 3.0 0.03 0.22 0.21 91 1016.6
20260506084904 44 59 1.0 3.0 0.03 0.22 0.21 91 1016.4
20260506084804 44 56 1.0 3.0 0.03 0.22 0.21 91 1016.2
20260506084704 44 33 1.0 6.0 0.03 0.22 0.21 91 1016.2
20260506084604 44 23 1.0 6.0 0.03 0.22 0.21 91 1016.1
20260506084504 44 22 1.0 6.0 0.03 0.22 0.21 91 1016.1
20260506084404 44 11 1.0 6.0 0.03 0.22 0.21 91 1016.1
20260506084304 44 6 1.0 6.0 0.03 0.22 0.21 91 1016.2
20260506084105 44 4 2.0 6.0 0.04 0.22 0.21 91 1016.4
20260506083904 44 346 2.0 6.0 0.04 0.22 0.21 91 1016.4
20260506083805 44 347 1.0 6.0 0.04 0.22 0.21 91 1016.4
20260506083705 44 354 1.0 4.0 0.04 0.22 0.21 91 1016.4
20260506083605 44 4 1.0 4.0 0.04 0.22 0.21 91 1016.4
20260506083504 44 1 1.0 4.0 0.04 0.22 0.21 91 1016.4
20260506083405 44 6 1.0 4.0 0.04 0.22 0.21 91 1016.3
20260506083305 44 353 1.0 4.0 0.04 0.22 0.21 91 1016.4
20260506083205 44 353 1.0 4.0 0.04 0.22 0.21 91 1016.4
20260506083104 44 338 1.0 4.0 0.04 0.22 0.21 91 1016.4
20260506083004 44 344 1.0 4.0 0.04 0.22 0.21 91 1016.4
20260506082905 44 341 1.0 4.0 0.04 0.22 0.21 91 1016.4
20260506082805 44 338 2.0 4.0 0.04 0.22 0.21 91 1016.5
20260506082705 44 337 2.0 4.0 0.03 0.21 0.20 91 1016.5
20260506082605 44 331 2.0 4.0 0.03 0.21 0.20 91 1016.6
20260506082505 44 333 2.0 4.0 0.03 0.21 0.20 91 1016.7
20260506082305 44 337 2.0 4.0 0.03 0.21 0.20 90 1016.8
20260506082005 44 340 2.0 4.0 0.04 0.21 0.20 90 1016.7
20260506081905 44 341 2.0 4.0 0.04 0.21 0.20 90 1016.6
20260506081805 44 340 2.0 5.0 0.04 0.21 0.20 90 1016.5
20260506081705 44 340 2.0 6.0 0.04 0.21 0.20 90 1016.5
20260506081505 44 346 2.0 6.0 0.04 0.21 0.20 90 1016.4
20260506081405 44 343 2.0 6.0 0.04 0.21 0.20 90 1016.6
20260506081305 44 342 2.0 6.0 0.04 0.21 0.20 90 1016.6
20260506081205 44 342 1.0 6.0 0.04 0.20 0.19 90 1016.6
20260506081105 44 339 1.0 6.0 0.04 0.20 0.19 90 1016.5
20260506081005 44 337 1.0 6.0 0.05 0.20 0.19 90 1016.3
20260506080905 44 335 1.0 6.0 0.05 0.20 0.19 90 1016.2
20260506080705 44 357 1.0 5.0 0.06 0.20 0.19 90 1016.1
20260506080605 44 345 1.0 5.0 0.06 0.20 0.19 90 1016.1
20260506080505 44 357 1.0 5.0 0.06 0.20 0.19 90 1016.2
20260506080405 44 4 1.0 5.0 0.07 0.20 0.19 90 1016.3
20260506080305 44 11 1.0 5.0 0.07 0.20 0.19 90 1016.3
20260506080205 44 5 1.0 6.0 0.08 0.20 0.19 90 1016.4
20260506080105 44 6 2.0 6.0 0.08 0.20 0.19 90 1016.4
20260506073505 44 28 2.0 5.0 0.11 0.18 0.17 89 1015.4
20260506073404 44 26 2.0 6.0 0.11 0.18 0.17 89 1015.4
20260506073304 44 28 2.0 6.0 0.11 0.18 0.17 89 1015.3
20260506073204 44 33 2.0 6.0 0.11 0.18 0.17 89 1015.3
20260506073104 45 39 2.0 6.0 0.12 0.18 0.17 89 1015.2
20260506073004 45 38 2.0 6.0 0.12 0.18 0.17 89 1015.2
20260506072804 45 39 2.0 6.0 0.12 0.18 0.17 89 1015.2
20260506072704 44 39 2.0 6.0 0.12 0.18 0.17 89 1015.2
20260506072604 45 39 2.0 6.0 0.12 0.18 0.17 89 1015.1
20260506072504 45 37 2.0 7.0 0.13 0.18 0.17 89 1015.0
20260506072404 45 42 2.0 7.0 0.13 0.18 0.17 88 1014.9
20260506072204 45 46 2.0 7.0 0.13 0.18 0.17 88 1014.9
20260506072104 45 45 3.0 7.0 0.12 0.17 0.16 88 1014.9
20260506072004 45 47 3.0 7.0 0.12 0.17 0.16 88 1014.9
20260506071904 45 52 3.0 8.0 0.12 0.17 0.16 88 1015.0
20260506071704 45 56 2.0 8.0 0.13 0.17 0.16 88 1015.0
20260506071604 45 55 2.0 8.0 0.13 0.17 0.16 88 1015.0
20260506071304 45 73 2.0 10.0 0.14 0.17 0.16 88 1014.9
20260506071205 45 65 2.0 10.0 0.13 0.16 0.15 88 1014.9
20260506071105 45 64 2.0 10.0 0.13 0.16 0.15 88 1014.9
20260506071005 45 63 2.0 10.0 0.12 0.15 0.14 87 1014.8
20260506070905 45 57 3.0 10.0 0.13 0.15 0.14 88 1014.8
20260506070804 45 53 3.0 10.0 0.12 0.14 0.13 88 1014.7
20260506070704 45 50 3.0 10.0 0.12 0.14 0.13 88 1014.6
20260506070604 45 51 3.0 10.0 0.12 0.14 0.13 87 1014.6
20260506070504 45 43 3.0 9.0 0.12 0.13 0.12 88 1014.7
20260506070404 45 39 3.0 9.0 0.12 0.13 0.12 88 1014.8
20260506070304 45 37 3.0 9.0 0.11 0.12 0.11 88 1014.9
20260506070204 45 42 2.0 9.0 0.11 0.12 0.11 87 1014.8
20260506070104 45 42 2.0 9.0 0.11 0.12 0.11 87 1014.8
20260506062505 46 30 2.0 7.0 0.04 0.06 0.04 84 1015.7
20260506062405 46 33 2.0 7.0 0.04 0.06 0.04 84 1015.7
20260506062306 46 33 2.0 7.0 0.04 0.06 0.04 84 1015.7
20260506062105 46 36 2.0 8.0 0.04 0.06 0.04 83 1015.6
20260506062005 46 35 2.0 8.0 0.04 0.06 0.04 83 1015.6
20260506061905 46 31 2.0 8.0 0.04 0.06 0.04 83 1015.5
20260506061805 46 32 2.0 8.0 0.03 0.05 0.03 83 1015.4
20260506061704 46 26 2.0 8.0 0.03 0.05 0.03 83 1015.3
20260506061605 46 36 2.0 8.0 0.03 0.05 0.03 83 1015.3
20260506061404 46 46 2.0 8.0 0.02 0.04 0.02 82 1015.1
20260506061304 46 48 2.0 8.0 0.02 0.04 0.02 82 1015.0
20260506061205 46 46 2.0 9.0 0.02 0.04 0.02 82 1014.9
20260506061104 46 54 2.0 9.0 0.02 0.04 0.02 82 1014.9
20260506061004 47 57 3.0 9.0 0.01 0.03 0.01 82 1014.8
20260506060904 47 59 3.0 9.0 0.01 0.03 0.01 81 1014.7
20260506060804 47 57 3.0 9.0 0.01 0.03 0.01 81 1014.6
20260506060604 47 58 3.0 9.0 0.00 0.02 0.00 80 1014.6
20260506060404 47 48 3.0 10.0 0.00 0.02 0.00 80 1014.5
20260506060304 47 48 3.0 10.0 0.00 0.02 0.00 80 1014.6
20260506060204 47 48 3.0 10.0 0.00 0.02 0.00 80 1014.5
20260506060104 47 45 3.0 10.0 0.00 0.02 0.00 79 1014.5
20260506051404 49 46 4.0 11.0 0.00 0.02 0.00 74 1014.0
20260506051304 49 43 4.0 11.0 0.00 0.02 0.00 74 1014.0
20260506051204 49 40 4.0 11.0 0.00 0.02 0.00 73 1014.0
20260506051104 49 39 4.0 11.0 0.00 0.02 0.00 73 1014.1
20260506051004 49 40 4.0 11.0 0.00 0.02 0.00 73 1014.2
20260506050904 49 36 4.0 11.0 0.00 0.02 0.00 73 1014.2
20260506050804 49 32 4.0 11.0 0.00 0.02 0.00 72 1014.4
20260506050705 49 26 3.0 10.0 0.00 0.03 0.00 72 1014.4
20260506050605 49 25 3.0 10.0 0.00 0.04 0.00 72 1014.5
20260506050504 49 15 3.0 10.0 0.00 0.05 0.00 72 1014.4
20260506050404 49 9 3.0 10.0 0.00 0.06 0.00 72 1014.4
20260506050304 49 4 3.0 7.0 0.00 0.07 0.00 72 1014.5
20260506050204 49 7 3.0 7.0 0.00 0.07 0.00 72 1014.5
20260506050104 49 1 3.0 7.0 0.00 0.07 0.00 72 1014.5
20260506045104 50 1 3.0 10.0 0.00 0.12 0.08 70 1014.6
20260506045004 50 358 3.0 10.0 0.00 0.12 0.08 69 1014.6
20260506044904 50 359 3.0 10.0 0.00 0.12 0.08 70 1014.6
20260506044805 50 2 3.0 10.0 0.00 0.12 0.08 70 1014.5
20260506044705 50 3 3.0 11.0 0.00 0.12 0.08 69 1014.5
20260506044604 50 2 3.0 11.0 0.00 0.12 0.08 69 1014.5
20260506044504 50 6 3.0 11.0 0.00 0.12 0.08 69 1014.5
20260506044404 50 13 3.0 11.0 0.00 0.12 0.08 69 1014.4
20260506044304 50 17 3.0 11.0 0.00 0.12 0.08 69 1014.5
20260506044204 50 20 3.0 11.0 0.00 0.12 0.08 69 1014.4
20260506044104 50 26 3.0 11.0 0.00 0.12 0.08 69 1014.4
20260506044004 50 29 3.0 11.0 0.00 0.12 0.08 69 1014.4
20260506043904 50 32 3.0 11.0 0.00 0.12 0.08 69 1014.2
20260506043804 50 35 2.0 11.0 0.00 0.12 0.08 69 1014.3
20260506043705 50 42 2.0 10.0 0.00 0.12 0.08 69 1014.2
20260506043505 50 45 2.0 10.0 0.00 0.12 0.08 70 1014.2
20260506043404 50 44 2.0 10.0 0.00 0.12 0.08 70 1014.2
20260506043304 50 43 3.0 11.0 0.00 0.12 0.08 70 1014.2
20260506043104 50 48 2.0 11.0 0.00 0.12 0.08 70 1014.1
20260506042804 50 56 3.0 11.0 0.00 0.12 0.08 71 1014.1
20260506042604 50 52 3.0 12.0 0.00 0.12 0.08 71 1014.0
20260506042505 50 51 3.0 12.0 0.00 0.12 0.08 71 1013.9
20260506042405 50 50 3.0 12.0 0.00 0.12 0.08 71 1013.8
20260506042305 50 50 3.0 12.0 0.00 0.12 0.08 72 1013.9
20260506042204 50 43 3.0 12.0 0.00 0.12 0.08 72 1013.9
20260506042104 50 40 3.0 12.0 0.00 0.12 0.08 72 1014.1
20260506042004 50 38 3.0 12.0 0.00 0.12 0.08 72 1014.1
20260506041904 50 34 3.0 12.0 0.00 0.12 0.08 72 1014.2
20260506041705 50 29 3.0 12.0 0.00 0.12 0.08 73 1014.2
20260506041604 50 22 3.0 7.0 0.00 0.12 0.08 73 1014.1
20260506041404 50 23 3.0 7.0 0.00 0.12 0.08 74 1014.1
20260506041304 50 23 3.0 7.0 0.00 0.12 0.08 74 1014.2
20260506041204 50 27 3.0 10.0 0.00 0.12 0.08 75 1014.2
20260506041105 50 24 3.0 10.0 0.00 0.12 0.08 75 1014.2
20260506040905 50 23 3.0 10.0 0.00 0.12 0.08 75 1014.1
20260506040704 50 19 3.0 10.0 0.00 0.12 0.08 76 1014.0
20260506040604 50 20 3.0 10.0 0.00 0.12 0.08 76 1014.1
20260506040504 50 18 3.0 10.0 0.00 0.12 0.08 76 1014.0
20260506040404 50 20 3.0 10.0 0.00 0.12 0.08 76 1014.0
20260506040304 50 19 3.0 10.0 0.00 0.12 0.08 76 1014.0
20260506040205 50 21 3.0 9.0 0.00 0.12 0.08 76 1014.0
20260506035904 50 28 2.0 9.0 0.00 0.12 0.08 77 1014.1
20260506035704 50 33 2.0 9.0 0.00 0.12 0.08 77 1014.1
20260506035605 50 42 2.0 9.0 0.00 0.12 0.08 77 1014.1
20260506035505 50 45 2.0 9.0 0.00 0.12 0.08 78 1014.1
20260506035404 50 42 1.0 9.0 0.00 0.12 0.08 78 1014.2
20260506035306 50 44 1.0 7.0 0.00 0.12 0.08 78 1014.1
20260506035204 50 41 1.0 7.0 0.00 0.12 0.08 78 1014.2
20260506035104 50 44 1.0 4.0 0.00 0.12 0.08 78 1014.2
20260506035005 50 45 1.0 4.0 0.00 0.12 0.08 79 1014.3
20260506034805 50 49 1.0 4.0 0.00 0.12 0.08 79 1014.2
20260506034705 50 50 1.0 4.0 0.00 0.12 0.08 79 1014.2
20260506034604 50 51 1.0 4.0 0.00 0.12 0.08 79 1014.2
20260506034504 50 49 1.0 4.0 0.00 0.12 0.08 79 1014.2
20260506034404 50 54 1.0 4.0 0.00 0.12 0.08 79 1014.2
20260506034304 50 52 1.0 4.0 0.00 0.12 0.08 79 1014.2
20260506034205 50 55 1.0 4.0 0.00 0.12 0.08 79 1014.2
20260506034105 50 53 1.0 4.0 0.00 0.12 0.08 79 1014.3
20260506033904 50 43 1.0 4.0 0.00 0.12 0.08 79 1014.4
20260506033804 50 41 1.0 4.0 0.00 0.12 0.08 79 1014.4
20260506033604 50 34 1.0 4.0 0.00 0.12 0.08 79 1014.4
20260506033504 50 33 1.0 4.0 0.00 0.12 0.08 79 1014.3
20260506033304 50 32 1.0 4.0 0.00 0.12 0.08 79 1014.3
20260506033205 50 15 1.0 6.0 0.00 0.12 0.08 79 1014.3
20260506033105 50 17 1.0 6.0 0.00 0.12 0.08 79 1014.3
20260506033005 50 17 1.0 6.0 0.00 0.12 0.08 79 1014.3
20260506032905 50 21 1.0 6.0 0.00 0.12 0.08 79 1014.4
20260506032804 50 22 1.0 6.0 0.00 0.12 0.08 79 1014.4
20260506032704 50 22 2.0 6.0 0.00 0.12 0.08 79 1014.3
20260506032604 50 23 2.0 6.0 0.00 0.12 0.08 79 1014.2
20260506032504 50 22 2.0 6.0 0.00 0.12 0.08 79 1014.2
20260506032305 50 14 2.0 6.0 0.00 0.12 0.08 79 1014.2
20260506032205 50 14 2.0 6.0 0.00 0.12 0.08 79 1014.1
20260506032105 50 3 2.0 5.0 0.00 0.12 0.08 80 1014.2
20260506032004 50 353 2.0 5.0 0.00 0.12 0.08 80 1014.2
20260506031704 50 343 2.0 5.0 0.00 0.12 0.08 80 1014.2
20260506031605 50 344 2.0 5.0 0.00 0.12 0.08 80 1014.2
20260506031505 50 343 2.0 5.0 0.00 0.12 0.08 80 1014.1
20260506031405 50 346 2.0 5.0 0.00 0.12 0.08 80 1014.1
20260506031304 50 347 2.0 5.0 0.00 0.12 0.08 80 1014.1
20260506031104 50 6 2.0 5.0 0.00 0.12 0.08 80 1014.0
20260506031004 50 18 2.0 5.0 0.00 0.12 0.08 80 1013.9
20260506030905 50 25 2.0 6.0 0.00 0.12 0.08 79 1013.8
20260506030805 50 34 2.0 6.0 0.00 0.12 0.08 79 1013.6
20260506030705 50 37 2.0 6.0 0.00 0.12 0.08 79 1013.5
20260506030504 50 43 2.0 6.0 0.00 0.12 0.08 79 1013.3
20260506030404 50 42 2.0 6.0 0.00 0.12 0.08 79 1013.4
20260506030304 50 44 2.0 6.0 0.00 0.12 0.08 79 1013.4
20260506030205 50 44 2.0 6.0 0.00 0.12 0.08 79 1013.4
20260506030105 50 42 2.0 6.0 0.00 0.12 0.08 79 1013.4
20260506030005 50 40 1.0 7.0 0.00 0.12 0.08 79 1013.6
20260506025904 50 40 2.0 7.0 0.00 0.12 0.08 79 1013.7
20260506025805 50 36 2.0 7.0 0.00 0.12 0.08 79 1013.6
20260506025705 50 34 2.0 7.0 0.00 0.12 0.08 79 1013.7
20260506025604 50 32 2.0 7.0 0.00 0.12 0.08 79 1013.7
20260506025505 50 34 2.0 7.0 0.00 0.12 0.08 79 1013.8
20260506025405 50 35 2.0 7.0 0.00 0.12 0.08 79 1013.7
20260506025306 50 34 2.0 7.0 0.00 0.12 0.08 79 1013.8
20260506025105 50 33 2.0 7.0 0.00 0.12 0.08 79 1013.7
20260506025004 50 38 2.0 6.0 0.00 0.12 0.08 79 1013.7
20260506024904 50 37 2.0 6.0 0.00 0.12 0.08 79 1013.7
20260506024804 50 40 2.0 6.0 0.00 0.12 0.08 79 1013.6
20260506024704 50 39 2.0 6.0 0.00 0.12 0.08 79 1013.6
20260506024504 50 36 2.0 6.0 0.00 0.12 0.08 79 1013.6
20260506024405 50 27 2.0 6.0 0.00 0.12 0.08 79 1013.6
20260506024305 50 25 2.0 6.0 0.00 0.12 0.08 79 1013.7
20260506024204 50 25 2.0 6.0 0.00 0.12 0.08 79 1013.7
20260506024105 50 27 2.0 6.0 0.00 0.12 0.08 79 1013.7
20260506024004 50 23 2.0 6.0 0.00 0.12 0.08 79 1013.7
20260506023804 50 12 2.0 6.0 0.00 0.12 0.08 79 1013.7
20260506023705 50 6 2.0 6.0 0.00 0.12 0.08 79 1013.6
20260506023404 50 4 3.0 7.0 0.00 0.12 0.08 79 1013.6
20260506023205 50 349 3.0 7.0 0.00 0.12 0.08 79 1013.7
20260506023104 50 349 3.0 7.0 0.00 0.12 0.08 79 1013.7
20260506022904 50 345 3.0 7.0 0.00 0.12 0.08 80 1013.7
20260506022805 50 344 3.0 7.0 0.00 0.12 0.08 79 1013.8
20260506022705 50 340 3.0 7.0 0.00 0.12 0.08 79 1013.7
20260506022504 50 331 3.0 9.0 0.00 0.12 0.08 79 1013.7
20260506022404 50 333 3.0 9.0 0.00 0.12 0.08 79 1013.7
20260506022306 50 334 3.0 9.0 0.00 0.12 0.08 79 1013.8
20260506022204 50 336 3.0 9.0 0.00 0.12 0.08 79 1013.8
20260506022104 50 339 3.0 9.0 0.00 0.12 0.08 79 1013.9
20260506022005 50 342 3.0 9.0 0.00 0.12 0.08 78 1013.8
20260506021904 50 348 3.0 9.0 0.00 0.12 0.08 78 1013.8
20260506021804 50 350 3.0 9.0 0.00 0.12 0.08 78 1013.8
20260506021704 50 357 3.0 9.0 0.00 0.12 0.08 78 1013.8
20260506021604 50 359 3.0 7.0 0.00 0.12 0.08 78 1013.8
20260506021504 50 355 3.0 7.0 0.00 0.12 0.08 78 1013.7
20260506021304 50 354 3.0 7.0 0.00 0.12 0.08 78 1013.7
20260506021204 50 356 3.0 7.0 0.00 0.12 0.08 78 1013.7
20260506021104 50 353 3.0 6.0 0.00 0.12 0.08 78 1013.7
20260506021005 50 348 3.0 6.0 0.00 0.12 0.08 78 1013.7
20260506020809 50 342 3.0 6.0 0.00 0.12 0.08 79 1013.7
20260506020705 50 334 3.0 6.0 0.00 0.12 0.08 79 1013.6
20260506020605 50 332 3.0 6.0 0.00 0.12 0.08 79 1013.6
20260506020504 50 334 3.0 6.0 0.00 0.12 0.08 79 1013.6
20260506020405 50 335 3.0 6.0 0.00 0.12 0.08 78 1013.5
20260506020305 50 336 3.0 6.0 0.00 0.12 0.08 78 1013.5
20260506020204 50 335 3.0 6.0 0.00 0.12 0.08 78 1013.5
20260506020104 50 333 3.0 6.0 0.00 0.12 0.08 78 1013.5
20260506020005 50 336 3.0 6.0 0.00 0.12 0.08 78 1013.6
20260506015904 50 333 3.0 6.0 0.00 0.12 0.08 78 1013.6
20260506015804 50 331 3.0 6.0 0.00 0.12 0.08 77 1013.7
20260506015605 50 342 3.0 6.0 0.00 0.12 0.08 77 1013.5
20260506015505 50 341 2.0 5.0 0.00 0.12 0.08 77 1013.5
20260506015404 50 337 2.0 5.0 0.00 0.12 0.08 77 1013.5
20260506015306 50 335 2.0 4.0 0.00 0.12 0.08 76 1013.5
20260506015204 50 337 2.0 4.0 0.00 0.12 0.08 76 1013.5
20260506015105 50 336 2.0 4.0 0.00 0.12 0.08 76 1013.5
20260506015004 50 338 2.0 4.0 0.00 0.12 0.08 76 1013.5
20260506014904 50 349 2.0 4.0 0.00 0.12 0.08 76 1013.5
20260506014705 50 6 2.0 7.0 0.00 0.12 0.08 75 1013.4
20260506014605 50 9 2.0 7.0 0.00 0.12 0.08 75 1013.4
20260506014504 50 16 2.0 7.0 0.00 0.12 0.08 75 1013.4
20260506014404 50 24 2.0 7.0 0.00 0.12 0.08 74 1013.3
20260506014304 50 30 2.0 7.0 0.00 0.12 0.08 74 1013.2
20260506014204 50 33 2.0 7.0 0.00 0.12 0.08 74 1013.2
20260506014104 50 40 2.0 7.0 0.00 0.12 0.08 74 1013.1
20260506014004 50 41 2.0 7.0 0.00 0.12 0.08 73 1013.0
20260506013905 50 45 1.0 7.0 0.00 0.12 0.08 73 1013.0
20260506013704 50 50 1.0 4.0 0.00 0.12 0.08 73 1013.0
20260506013405 50 40 2.0 5.0 0.00 0.12 0.08 73 1013.0
20260506013305 50 33 2.0 6.0 0.00 0.12 0.08 72 1012.9
20260506013205 50 29 2.0 6.0 0.00 0.12 0.08 72 1012.9
20260506013105 50 26 2.0 7.0 0.00 0.12 0.08 72 1013.0
20260506012905 51 18 2.0 7.0 0.00 0.12 0.08 72 1012.9
20260506012805 51 16 2.0 7.0 0.00 0.12 0.08 72 1012.9
20260506012705 51 19 2.0 7.0 0.00 0.12 0.08 72 1012.9
20260506012604 51 16 2.0 7.0 0.00 0.12 0.08 72 1013.0
20260506012308 51 18 2.0 7.0 0.00 0.12 0.08 71 1012.9
20260506012205 51 23 2.0 7.0 0.00 0.12 0.08 71 1012.9
20260506012005 51 24 2.0 7.0 0.00 0.12 0.08 70 1012.9
20260506011905 51 27 2.0 7.0 0.00 0.12 0.08 70 1012.8
20260506011705 51 31 2.0 7.0 0.00 0.12 0.08 70 1012.8
20260506011605 51 38 2.0 7.0 0.00 0.12 0.08 69 1012.8
20260506011505 51 40 2.0 7.0 0.00 0.12 0.08 69 1012.7
20260506011405 51 43 2.0 7.0 0.00 0.12 0.08 68 1012.7
20260506011204 52 48 1.0 7.0 0.00 0.12 0.08 68 1012.7
20260506011105 52 59 1.0 7.0 0.00 0.12 0.08 68 1012.6
20260506011005 52 69 1.0 5.0 0.00 0.12 0.08 67 1012.5
20260506010905 52 75 1.0 9.0 0.00 0.12 0.08 67 1012.5
20260506010604 52 63 2.0 9.0 0.00 0.12 0.08 67 1012.5
20260506010504 52 63 2.0 9.0 0.00 0.12 0.08 66 1012.6
20260506010405 52 53 2.0 9.0 0.00 0.12 0.08 66 1012.6
20260506010305 52 55 2.0 9.0 0.00 0.12 0.08 66 1012.6
20260506010205 52 52 2.0 9.0 0.00 0.12 0.08 66 1012.6
20260506010005 52 54 2.0 9.0 0.00 0.12 0.08 66 1012.7
20260506005804 52 60 2.0 11.0 0.00 0.12 0.08 65 1012.7
20260506005705 52 62 2.0 11.0 0.00 0.12 0.08 65 1012.7
20260506005505 52 51 3.0 11.0 0.00 0.12 0.08 65 1012.7
20260506005405 52 56 3.0 11.0 0.00 0.12 0.08 65 1012.6
20260506005306 52 52 3.0 11.0 0.00 0.12 0.08 64 1012.6
20260506005004 52 44 2.0 11.0 0.00 0.12 0.08 64 1012.5
20260506004905 52 32 3.0 9.0 0.00 0.12 0.08 64 1012.5
20260506004805 52 25 3.0 9.0 0.00 0.12 0.08 64 1012.5
20260506004705 52 22 3.0 9.0 0.00 0.12 0.08 64 1012.5
20260506004405 52 31 3.0 9.0 0.00 0.12 0.08 64 1012.3
20260506004205 52 33 3.0 8.0 0.00 0.12 0.08 65 1012.4
20260506004105 52 36 3.0 8.0 0.00 0.12 0.08 64 1012.3
20260506004005 52 44 3.0 11.0 0.00 0.12 0.08 64 1012.3
20260506003905 52 43 3.0 11.0 0.00 0.12 0.08 64 1012.3
20260506003805 52 52 2.0 11.0 0.00 0.12 0.08 64 1012.3
20260506003705 52 55 2.0 11.0 0.00 0.12 0.08 64 1012.4
20260506003605 52 61 2.0 11.0 0.00 0.12 0.08 64 1012.3
20260506003504 52 62 2.0 11.0 0.00 0.12 0.08 64 1012.3
20260506003305 52 73 2.0 11.0 0.00 0.12 0.08 65 1012.3
20260506003205 52 72 2.0 11.0 0.00 0.12 0.08 65 1012.2
20260506003105 52 63 2.0 11.0 0.00 0.12 0.08 65 1012.2
20260506003005 52 54 2.0 10.0 0.00 0.12 0.08 66 1012.2
20260506002905 52 66 2.0 7.0 0.00 0.12 0.08 68 1012.2
20260506002505 52 61 2.0 7.0 0.00 0.12 0.08 67 1012.2
20260506002405 52 63 2.0 7.0 0.00 0.12 0.08 67 1012.2
20260506002104 52 64 2.0 7.0 0.00 0.12 0.08 68 1012.1
20260506002004 52 58 2.0 7.0 0.00 0.12 0.08 68 1012.2
20260506001905 52 57 2.0 9.0 0.00 0.12 0.08 69 1012.1
20260506001605 52 39 3.0 10.0 0.00 0.12 0.08 68 1011.9
20260506001505 52 37 3.0 10.0 0.00 0.12 0.08 68 1011.9
20260506001405 52 36 3.0 10.0 0.00 0.12 0.08 68 1011.9
20260506001205 53 37 3.0 10.0 0.00 0.12 0.08 67 1011.9
20260506001105 53 37 3.0 10.0 0.00 0.12 0.08 68 1011.9
20260506000804 53 32 3.0 10.0 0.00 0.12 0.08 68 1011.8
20260506000705 53 24 3.0 10.0 0.00 0.12 0.08 68 1011.8
20260506000605 53 30 3.0 10.0 0.00 0.12 0.08 68 1011.8
20260506000505 53 30 3.0 10.0 0.00 0.12 0.08 68 1011.8
20260506000405 53 29 3.0 10.0 0.00 0.12 0.08 68 1011.8
20260506000105 53 40 3.0 10.0 0.00 0.12 0.08 67 1011.8
20260505235805 53 48 2.0 10.0 0.00 0.12 0.08 68 1011.8
20260505235705 53 54 2.0 9.0 0.00 0.12 0.08 68 1011.7
20260505235604 53 54 2.0 9.0 0.00 0.12 0.08 68 1011.7
20260505235505 53 57 3.0 9.0 0.00 0.12 0.08 68 1011.7
20260505235405 53 57 2.0 9.0 0.00 0.12 0.08 67 1011.7
20260505235305 53 54 2.0 9.0 0.00 0.12 0.08 68 1011.8
20260505235205 53 53 2.0 9.0 0.00 0.12 0.08 67 1011.8
20260505235105 53 53 2.0 9.0 0.00 0.12 0.08 67 1011.9
20260505235005 53 52 2.0 9.0 0.00 0.12 0.08 68 1011.9
20260505234905 53 57 2.0 7.0 0.00 0.12 0.08 68 1011.9
20260505234705 53 74 2.0 7.0 0.00 0.12 0.08 69 1011.9
20260505234604 53 75 2.0 7.0 0.00 0.12 0.08 69 1011.9
20260505234504 53 76 2.0 7.0 0.00 0.12 0.08 69 1011.9
20260505234405 53 81 2.0 7.0 0.00 0.12 0.08 69 1011.9
20260505234305 53 76 2.0 7.0 0.00 0.12 0.08 70 1011.8
20260505234205 53 76 2.0 7.0 0.00 0.12 0.08 69 1011.8
20260505234105 53 75 2.0 7.0 0.00 0.12 0.08 69 1011.8
20260505233905 53 76 2.0 7.0 0.00 0.12 0.08 69 1011.8
20260505233804 53 72 2.0 11.0 0.00 0.12 0.08 69 1011.7
20260505233704 53 71 2.0 11.0 0.00 0.12 0.08 70 1011.7
20260505233605 53 71 2.0 11.0 0.00 0.12 0.08 69 1011.7
20260505233505 53 72 3.0 11.0 0.00 0.12 0.08 69 1011.8
20260505233405 53 72 3.0 11.0 0.00 0.12 0.08 69 1011.7
20260505233305 53 75 3.0 11.0 0.00 0.12 0.08 69 1011.7
20260505233104 53 75 3.0 11.0 0.00 0.12 0.08 69 1011.8
20260505233005 53 74 3.0 11.0 0.00 0.12 0.08 68 1011.8
20260505232905 53 73 2.0 11.0 0.00 0.12 0.08 69 1011.8
20260505232605 53 75 2.0 9.0 0.00 0.12 0.08 69 1011.9
20260505232404 53 66 2.0 9.0 0.00 0.12 0.08 69 1011.9
20260505232305 53 63 2.0 9.0 0.00 0.12 0.08 69 1011.9
20260505232204 53 70 2.0 9.0 0.00 0.12 0.08 69 1011.9
20260505232105 53 65 3.0 9.0 0.00 0.12 0.08 69 1011.9
20260505232005 53 69 3.0 11.0 0.00 0.12 0.08 69 1011.8
20260505231905 53 71 3.0 12.0 0.00 0.12 0.08 69 1011.8
20260505231805 53 71 3.0 12.0 0.00 0.12 0.08 69 1011.8
20260505231705 53 72 3.0 12.0 0.00 0.12 0.08 69 1011.7
20260505231604 53 72 4.0 12.0 0.00 0.12 0.08 69 1011.7
20260505231505 53 73 4.0 12.0 0.00 0.12 0.08 68 1011.6
20260505231405 53 78 4.0 12.0 0.00 0.12 0.08 69 1011.6
20260505231305 53 79 4.0 12.0 0.00 0.12 0.08 69 1011.7
20260505231205 53 80 4.0 12.0 0.00 0.12 0.08 68 1011.6
20260505231105 53 82 4.0 12.0 0.00 0.12 0.08 68 1011.6
20260505231005 53 82 3.0 12.0 0.00 0.12 0.08 68 1011.5
20260505230905 53 82 3.0 10.0 0.00 0.12 0.08 69 1011.5
20260505230804 53 83 4.0 10.0 0.00 0.12 0.08 68 1011.5
20260505230705 53 85 3.0 10.0 0.00 0.12 0.08 68 1011.5
20260505230604 53 87 3.0 10.0 0.00 0.12 0.08 68 1011.5
20260505230505 53 87 3.0 10.0 0.00 0.12 0.08 68 1011.5
20260505230405 53 86 3.0 10.0 0.00 0.12 0.08 68 1011.6
20260505230305 53 87 2.0 10.0 0.00 0.12 0.08 68 1011.5
20260505230105 53 76 3.0 10.0 0.00 0.12 0.08 68 1011.5
20260505225904 53 70 3.0 10.0 0.00 0.12 0.08 68 1011.6
20260505225705 53 66 3.0 10.0 0.00 0.12 0.08 68 1011.6
20260505225604 53 63 3.0 8.0 0.00 0.12 0.08 68 1011.6
20260505225505 53 65 3.0 10.0 0.00 0.12 0.08 68 1011.6
20260505225405 53 62 3.0 10.0 0.00 0.12 0.08 68 1011.6
20260505225306 53 58 3.0 10.0 0.00 0.12 0.08 68 1011.6
20260505225205 53 63 3.0 10.0 0.00 0.12 0.08 68 1011.6
20260505225005 53 66 3.0 10.0 0.00 0.12 0.08 68 1011.6
20260505224705 53 60 3.0 16.0 0.00 0.12 0.08 68 1011.7
20260505224604 53 60 4.0 16.0 0.00 0.12 0.08 68 1011.7
20260505224404 53 63 3.0 16.0 0.00 0.12 0.08 68 1011.6
20260505224305 53 65 3.0 16.0 0.00 0.12 0.08 67 1011.7
20260505224205 53 66 3.0 16.0 0.00 0.12 0.08 67 1011.6
20260505224105 53 69 3.0 16.0 0.00 0.12 0.08 67 1011.7
20260505224005 53 68 3.0 16.0 0.00 0.12 0.08 67 1011.6
20260505223905 53 70 2.0 16.0 0.00 0.12 0.08 67 1011.6
20260505223805 53 69 2.0 16.0 0.00 0.12 0.08 67 1011.5
20260505223604 53 75 2.0 15.0 0.00 0.12 0.08 68 1011.5
20260505223505 53 73 3.0 11.0 0.00 0.12 0.08 68 1011.5
20260505223405 53 74 3.0 11.0 0.00 0.12 0.08 68 1011.5
20260505223305 53 76 3.0 11.0 0.00 0.12 0.08 68 1011.5
20260505223205 53 75 3.0 11.0 0.00 0.12 0.08 67 1011.5
20260505223104 53 76 3.0 11.0 0.00 0.12 0.08 68 1011.6
20260505223004 53 76 3.0 11.0 0.00 0.12 0.08 68 1011.5
20260505222805 53 68 3.0 11.0 0.00 0.12 0.08 67 1011.5
20260505222705 53 67 3.0 11.0 0.00 0.12 0.08 66 1011.5
20260505222605 53 65 3.0 9.0 0.00 0.12 0.08 67 1011.4
20260505222405 53 58 3.0 9.0 0.00 0.12 0.08 68 1011.4
20260505222306 53 55 3.0 9.0 0.00 0.12 0.08 68 1011.4
20260505222205 53 57 4.0 11.0 0.00 0.12 0.08 68 1011.5
20260505222104 53 53 4.0 12.0 0.00 0.12 0.08 67 1011.5
20260505222004 53 50 4.0 12.0 0.00 0.12 0.08 67 1011.5
20260505221905 53 53 4.0 12.0 0.00 0.12 0.08 67 1011.5
20260505221805 53 54 4.0 12.0 0.00 0.12 0.08 67 1011.6
20260505221705 52 56 4.0 12.0 0.00 0.12 0.08 67 1011.7
20260505221605 52 54 5.0 12.0 0.00 0.12 0.08 67 1011.7
20260505221505 52 57 5.0 12.0 0.00 0.12 0.08 67 1011.8
20260505221404 52 63 5.0 14.0 0.00 0.12 0.08 67 1011.8
20260505221304 52 65 5.0 14.0 0.00 0.12 0.08 66 1011.8
20260505221004 52 62 5.0 14.0 0.00 0.12 0.08 66 1011.7
20260505220905 52 62 6.0 14.0 0.00 0.12 0.08 67 1011.7
20260505220805 52 60 6.0 14.0 0.00 0.12 0.08 66 1011.7
20260505220605 52 57 5.0 14.0 0.00 0.12 0.08 66 1011.8
20260505220505 53 54 5.0 14.0 0.00 0.12 0.08 66 1011.8
20260505220404 53 49 5.0 13.0 0.00 0.12 0.08 66 1011.7
20260505220304 53 51 5.0 13.0 0.00 0.12 0.08 65 1011.7
20260505220204 53 49 5.0 13.0 0.00 0.12 0.08 66 1011.8
20260505220104 53 49 5.0 13.0 0.00 0.12 0.08 66 1011.8
20260505220005 53 52 5.0 13.0 0.00 0.12 0.08 66 1012.0
20260505215905 53 51 5.0 13.0 0.00 0.12 0.08 66 1012.0
20260505215604 53 59 5.0 12.0 0.00 0.12 0.08 66 1012.0
20260505215505 53 59 5.0 12.0 0.00 0.12 0.08 65 1012.0
20260505215405 53 56 5.0 12.0 0.00 0.12 0.08 65 1012.1
20260505215305 53 53 5.0 12.0 0.00 0.12 0.08 66 1012.1
20260505215205 53 54 4.0 12.0 0.00 0.12 0.08 65 1012.1
20260505215105 53 56 4.0 12.0 0.00 0.12 0.08 66 1012.2
20260505215005 53 55 4.0 12.0 0.00 0.12 0.08 66 1012.1
20260505214904 52 57 4.0 12.0 0.00 0.12 0.08 66 1012.2
20260505214805 52 53 4.0 12.0 0.00 0.12 0.08 66 1012.2
20260505214705 52 57 4.0 12.0 0.00 0.12 0.08 66 1012.2
20260505214605 52 55 4.0 12.0 0.00 0.12 0.08 65 1012.2
20260505214505 52 55 4.0 12.0 0.00 0.12 0.08 66 1012.1
20260505214405 52 59 4.0 12.0 0.00 0.12 0.08 66 1012.2
20260505214304 52 60 4.0 11.0 0.00 0.12 0.08 66 1012.1
20260505214204 52 58 4.0 12.0 0.00 0.12 0.08 66 1012.1
20260505214104 52 62 5.0 12.0 0.00 0.12 0.08 66 1012.1
20260505214005 52 55 5.0 12.0 0.00 0.12 0.08 65 1012.2
20260505213905 52 50 5.0 12.0 0.00 0.12 0.08 66 1012.2
20260505213805 52 52 5.0 12.0 0.00 0.12 0.08 65 1012.2
20260505213705 52 45 5.0 12.0 0.00 0.12 0.08 65 1012.3
20260505213505 52 48 5.0 12.0 0.00 0.12 0.08 66 1012.3
20260505213304 52 48 5.0 12.0 0.00 0.12 0.08 64 1012.3
20260505213205 52 53 5.0 12.0 0.00 0.12 0.08 65 1012.4
20260505213005 52 59 5.0 9.0 0.00 0.12 0.08 65 1012.5
20260505212904 52 64 5.0 11.0 0.00 0.12 0.08 65 1012.4
20260505212804 52 66 5.0 12.0 0.00 0.12 0.08 66 1012.4
20260505212704 52 71 5.0 12.0 0.00 0.12 0.08 65 1012.4
20260505212605 52 72 5.0 12.0 0.00 0.12 0.08 66 1012.4
20260505212505 52 72 5.0 12.0 0.00 0.12 0.08 66 1012.4
20260505212405 52 76 5.0 15.0 0.00 0.12 0.08 66 1012.4
20260505212306 52 73 5.0 15.0 0.00 0.12 0.08 67 1012.3
20260505212204 52 73 5.0 15.0 0.00 0.12 0.08 66 1012.4
20260505212105 52 72 5.0 15.0 0.00 0.12 0.08 66 1012.4
20260505212005 52 74 5.0 15.0 0.00 0.12 0.08 66 1012.4
20260505211905 52 72 5.0 15.0 0.00 0.12 0.08 66 1012.4
20260505211805 52 71 4.0 15.0 0.00 0.12 0.08 66 1012.4
20260505211705 52 73 4.0 15.0 0.00 0.12 0.08 66 1012.4
20260505211504 52 72 3.0 15.0 0.00 0.12 0.08 67 1012.3
20260505211405 52 66 4.0 14.0 0.00 0.12 0.08 67 1012.3
20260505211304 52 69 4.0 14.0 0.00 0.12 0.08 67 1012.4
20260505211205 52 69 4.0 14.0 0.00 0.12 0.08 66 1012.4
20260505211105 52 66 3.0 14.0 0.00 0.12 0.08 66 1012.4
20260505211005 52 66 4.0 12.0 0.00 0.12 0.08 67 1012.4
20260505210905 52 64 4.0 12.0 0.00 0.12 0.08 67 1012.4
20260505210705 52 64 4.0 12.0 0.00 0.12 0.08 67 1012.5
20260505210604 52 64 5.0 12.0 0.00 0.12 0.08 67 1012.5
20260505210504 52 59 5.0 12.0 0.00 0.12 0.08 66 1012.6
20260505210404 52 59 4.0 12.0 0.00 0.12 0.08 67 1012.5
20260505210304 52 62 5.0 12.0 0.00 0.12 0.08 67 1012.5
20260505210204 52 57 5.0 16.0 0.00 0.12 0.08 67 1012.5
20260505210105 52 55 5.0 16.0 0.00 0.12 0.08 68 1012.4
20260505210005 52 54 5.0 16.0 0.00 0.12 0.08 68 1012.5
20260505205905 52 56 5.0 16.0 0.00 0.12 0.08 67 1012.5
20260505205805 52 56 5.0 16.0 0.00 0.12 0.08 67 1012.5
20260505205705 52 57 5.0 16.0 0.00 0.12 0.08 67 1012.4
20260505205605 52 56 5.0 16.0 0.00 0.12 0.08 67 1012.4
20260505205505 52 56 5.0 16.0 0.00 0.12 0.08 68 1012.4
20260505205404 52 57 4.0 16.0 0.00 0.12 0.08 68 1012.4
20260505205305 52 55 4.0 16.0 0.00 0.12 0.08 68 1012.4
20260505205204 52 61 4.0 14.0 0.00 0.12 0.08 69 1012.4
20260505205005 52 68 4.0 14.0 0.00 0.12 0.08 69 1012.4
20260505204905 52 70 4.0 14.0 0.00 0.12 0.08 69 1012.4
20260505204805 52 70 3.0 14.0 0.00 0.12 0.08 68 1012.4
20260505204705 52 67 3.0 14.0 0.00 0.12 0.08 69 1012.4
20260505204605 52 68 3.0 14.0 0.00 0.12 0.08 70 1012.4
20260505204405 52 76 3.0 12.0 0.00 0.12 0.08 70 1012.5
20260505204304 52 75 3.0 12.0 0.00 0.12 0.08 70 1012.5
20260505204204 52 74 3.0 12.0 0.00 0.12 0.08 69 1012.6
20260505204105 52 71 4.0 12.0 0.00 0.12 0.08 70 1012.6
20260505204005 52 71 4.0 12.0 0.00 0.12 0.08 70 1012.6
20260505203805 51 69 4.0 12.0 0.00 0.12 0.08 70 1012.6
20260505203604 51 72 4.0 12.0 0.00 0.12 0.08 71 1012.6
20260505203504 51 70 4.0 12.0 0.00 0.12 0.08 71 1012.6
20260505203305 51 70 4.0 15.0 0.00 0.12 0.08 71 1012.6
20260505203205 51 70 5.0 15.0 0.00 0.12 0.08 70 1012.6
20260505203005 51 74 5.0 15.0 0.00 0.12 0.08 70 1012.6
20260505202904 51 75 5.0 15.0 0.00 0.12 0.08 70 1012.7
20260505202804 51 77 6.0 15.0 0.00 0.12 0.08 70 1012.7
20260505202704 51 78 6.0 15.0 0.00 0.12 0.08 70 1012.8
20260505202505 51 79 5.0 15.0 0.00 0.12 0.08 70 1012.8
20260505202307 51 74 6.0 15.0 0.00 0.12 0.08 70 1012.8
20260505202205 51 74 6.0 15.0 0.00 0.12 0.08 70 1012.9
20260505202105 51 76 5.0 16.0 0.00 0.12 0.08 70 1012.9
20260505202005 51 75 5.0 16.0 0.00 0.12 0.08 70 1012.8
20260505201905 51 74 5.0 16.0 0.00 0.12 0.08 70 1012.8
20260505201804 51 72 5.0 16.0 0.00 0.12 0.08 70 1012.8
20260505201405 51 76 6.0 16.0 0.00 0.12 0.08 70 1012.9
20260505201305 51 74 6.0 16.0 0.00 0.12 0.08 70 1012.9
20260505201204 51 76 6.0 16.0 0.00 0.12 0.08 69 1012.8
20260505201105 51 74 6.0 15.0 0.00 0.12 0.08 69 1012.9
20260505201004 51 70 6.0 16.0 0.00 0.12 0.08 69 1012.9
20260505200905 51 72 7.0 17.0 0.00 0.12 0.08 69 1012.9
20260505200805 51 74 7.0 17.0 0.00 0.12 0.08 69 1012.9
20260505200704 51 75 7.0 17.0 0.00 0.12 0.08 69 1012.8
20260505200604 51 74 7.0 17.0 0.00 0.12 0.08 68 1012.8
20260505200505 51 75 7.0 17.0 0.00 0.12 0.08 68 1012.9
20260505200305 51 70 7.0 17.0 0.00 0.12 0.08 69 1012.8
20260505200205 51 69 7.0 17.0 0.00 0.12 0.08 69 1012.9
20260505200104 51 70 7.0 17.0 0.00 0.12 0.08 68 1012.9
20260505200005 51 73 7.0 20.0 0.00 0.12 0.08 68 1013.0
20260505195904 51 70 7.0 20.0 0.00 0.12 0.08 68 1012.8
20260505195805 51 68 7.0 20.0 0.00 0.12 0.08 68 1012.9
20260505195605 51 63 7.0 20.0 0.00 0.12 0.08 68 1012.8
20260505195405 51 64 8.0 20.0 0.00 0.12 0.08 68 1012.7
20260505195305 51 63 8.0 20.0 0.00 0.12 0.08 67 1012.7
20260505195204 51 59 8.0 20.0 0.00 0.12 0.08 67 1012.7
20260505195104 51 58 8.0 20.0 0.00 0.12 0.08 67 1012.7
20260505195004 51 54 8.0 20.0 0.00 0.12 0.08 67 1012.6
20260505194905 51 51 9.0 20.0 0.00 0.12 0.08 67 1012.6
20260505194805 51 49 8.0 20.0 0.00 0.12 0.08 67 1012.7
20260505194705 51 51 8.0 20.0 0.00 0.12 0.08 67 1012.7
20260505194605 51 51 8.0 20.0 0.00 0.12 0.08 67 1012.7
20260505194504 51 50 8.0 20.0 0.00 0.12 0.08 66 1012.7
20260505194404 51 51 8.0 19.0 0.00 0.12 0.08 66 1012.7
20260505194304 51 49 8.0 19.0 0.00 0.12 0.08 66 1012.7
20260505194205 51 49 8.0 19.0 0.00 0.12 0.08 67 1012.7
20260505194105 51 47 7.0 19.0 0.00 0.12 0.08 66 1012.6
20260505194005 51 46 7.0 19.0 0.00 0.12 0.08 66 1012.6
20260505193904 51 49 7.0 19.0 0.00 0.12 0.08 66 1012.6
20260505193804 51 49 7.0 19.0 0.00 0.12 0.08 66 1012.7
20260505193705 51 46 7.0 19.0 0.00 0.12 0.08 65 1012.6
20260505193604 51 46 6.0 19.0 0.00 0.12 0.08 65 1012.6
20260505193505 51 43 7.0 19.0 0.00 0.12 0.08 65 1012.7
20260505193405 51 37 6.0 19.0 0.00 0.12 0.08 66 1012.6
20260505193305 51 37 6.0 19.0 0.00 0.12 0.08 67 1012.6
20260505193205 51 35 7.0 19.0 0.00 0.12 0.08 67 1012.7
20260505193005 51 35 7.0 19.0 0.00 0.12 0.08 67 1012.7
20260505192905 51 34 7.0 19.0 0.00 0.12 0.08 68 1012.7
20260505192804 51 32 6.0 19.0 0.00 0.12 0.08 68 1012.8
20260505192705 51 33 6.0 19.0 0.00 0.12 0.08 69 1012.6
20260505192604 51 33 6.0 19.0 0.00 0.12 0.08 68 1012.7
20260505192504 51 36 6.0 19.0 0.00 0.12 0.08 69 1012.6
20260505192404 51 43 6.0 18.0 0.00 0.12 0.08 69 1012.7
20260505192306 51 48 6.0 18.0 0.00 0.12 0.08 69 1012.6
20260505192204 51 50 6.0 18.0 0.00 0.12 0.08 69 1012.7
20260505192004 51 58 6.0 18.0 0.00 0.12 0.08 69 1012.6
20260505191804 52 59 6.0 18.0 0.00 0.12 0.08 69 1012.5
20260505191604 52 56 5.0 18.0 0.00 0.12 0.08 71 1012.6
20260505191504 52 54 5.0 18.0 0.00 0.12 0.08 70 1012.6
20260505191404 52 53 6.0 18.0 0.00 0.12 0.08 70 1012.6
20260505191304 52 54 6.0 18.0 0.00 0.12 0.08 70 1012.6
20260505191104 52 57 6.0 18.0 0.00 0.12 0.08 71 1012.6
20260505191004 52 56 5.0 18.0 0.00 0.12 0.08 71 1012.6
20260505190904 52 61 5.0 16.0 0.00 0.12 0.08 72 1012.5
20260505190805 52 63 6.0 16.0 0.00 0.12 0.08 72 1012.5
20260505190704 52 67 6.0 16.0 0.00 0.12 0.08 72 1012.4
20260505190504 52 71 5.0 16.0 0.00 0.12 0.08 72 1012.4
20260505190405 52 73 5.0 16.0 0.00 0.12 0.08 71 1012.4
20260505190204 52 68 4.0 15.0 0.00 0.12 0.08 71 1012.4
20260505190105 52 70 4.0 15.0 0.00 0.12 0.08 72 1012.3
20260505190005 52 67 4.0 11.0 0.00 0.12 0.08 72 1012.4
20260505185904 52 72 4.0 11.0 0.00 0.12 0.08 72 1012.5
20260505185804 52 72 4.0 11.0 0.00 0.12 0.08 72 1012.5
20260505185704 52 75 4.0 11.0 0.00 0.12 0.08 73 1012.4
20260505185604 52 74 4.0 11.0 0.00 0.12 0.08 72 1012.5
20260505185505 52 74 5.0 14.0 0.00 0.12 0.08 72 1012.5
20260505185405 52 74 5.0 14.0 0.00 0.12 0.08 71 1012.5
20260505185105 51 77 5.0 14.0 0.00 0.12 0.08 70 1012.5
20260505185005 51 78 5.0 14.0 0.00 0.12 0.08 70 1012.5
20260505184905 51 75 5.0 14.0 0.00 0.12 0.08 70 1012.4
20260505184805 51 75 6.0 14.0 0.00 0.12 0.08 70 1012.5
20260505184605 51 75 5.0 14.0 0.00 0.12 0.08 69 1012.5
20260505184505 51 73 6.0 14.0 0.00 0.12 0.08 69 1012.4
20260505184405 51 73 6.0 16.0 0.00 0.12 0.08 69 1012.4
20260505184205 51 76 7.0 16.0 0.00 0.12 0.08 69 1012.3
20260505184105 51 77 7.0 20.0 0.00 0.12 0.08 68 1012.3
20260505183904 51 78 7.0 20.0 0.00 0.12 0.08 69 1012.3
20260505183704 51 79 8.0 20.0 0.00 0.12 0.08 68 1012.2
20260505183604 51 77 7.0 20.0 0.00 0.12 0.08 67 1012.3
20260505183405 51 80 7.0 20.0 0.00 0.12 0.08 67 1012.3
20260505183205 52 80 6.0 20.0 0.00 0.12 0.08 66 1012.3
20260505183104 52 79 6.0 20.0 0.00 0.12 0.08 66 1012.3
20260505183004 52 81 6.0 20.0 0.00 0.12 0.08 66 1012.3
20260505182905 52 81 6.0 20.0 0.00 0.12 0.08 67 1012.3
20260505182804 52 81 6.0 20.0 0.00 0.12 0.08 67 1012.3
20260505182704 52 82 5.0 20.0 0.00 0.12 0.08 67 1012.3
20260505182505 52 84 5.0 20.0 0.00 0.12 0.08 66 1012.2
20260505182306 52 84 5.0 18.0 0.00 0.12 0.08 67 1012.2
20260505182205 52 82 6.0 18.0 0.00 0.12 0.08 68 1012.2
20260505182104 52 79 6.0 18.0 0.00 0.12 0.08 67 1012.2
20260505182004 52 76 6.0 19.0 0.00 0.12 0.08 68 1012.2
20260505181804 52 75 7.0 24.0 0.00 0.12 0.08 68 1012.3
20260505181604 51 74 8.0 24.0 0.00 0.12 0.08 67 1012.2
20260505181404 51 70 8.0 24.0 0.00 0.12 0.08 66 1012.3
20260505181305 51 70 9.0 24.0 0.00 0.12 0.08 66 1012.3
20260505181204 51 70 9.0 24.0 0.00 0.12 0.08 66 1012.3
20260505181004 51 66 7.0 24.0 0.00 0.12 0.08 65 1012.2
20260505180905 51 63 7.0 23.0 0.00 0.12 0.08 66 1012.2
20260505180704 51 62 7.0 23.0 0.00 0.12 0.08 67 1012.2
20260505180405 51 60 8.0 23.0 0.00 0.12 0.08 66 1012.2
20260505180305 51 54 7.0 21.0 0.00 0.12 0.08 67 1012.3
20260505180205 51 53 7.0 21.0 0.00 0.12 0.08 68 1012.2
20260505180005 51 58 7.0 21.0 0.00 0.12 0.08 67 1012.5
20260505175905 51 59 7.0 21.0 0.00 0.12 0.08 67 1012.4
20260505175804 51 63 6.0 21.0 0.00 0.12 0.08 67 1012.5
20260505175705 51 59 6.0 21.0 0.00 0.12 0.08 66 1012.5
20260505175605 52 62 5.0 21.0 0.00 0.12 0.08 66 1012.7
20260505175504 52 66 5.0 21.0 0.00 0.12 0.08 66 1012.5
20260505175404 52 65 4.0 21.0 0.00 0.12 0.08 66 1012.6
20260505175204 52 76 4.0 19.0 0.00 0.12 0.08 68 1012.6
20260505175104 52 79 5.0 19.0 0.00 0.12 0.08 69 1012.6
20260505175004 52 79 5.0 19.0 0.00 0.12 0.08 70 1012.5
20260505174904 52 78 5.0 19.0 0.00 0.12 0.08 71 1012.6
20260505174804 52 73 6.0 19.0 0.00 0.12 0.08 71 1012.6
20260505174704 52 73 6.0 19.0 0.01 0.12 0.08 70 1012.5
20260505174604 52 71 6.0 19.0 0.01 0.12 0.08 70 1012.6
20260505174504 52 70 7.0 19.0 0.01 0.12 0.08 70 1012.6
20260505174404 52 69 7.0 20.0 0.01 0.12 0.08 69 1012.6
20260505174304 52 69 7.0 20.0 0.01 0.12 0.08 68 1012.5
20260505174104 52 67 7.0 20.0 0.01 0.12 0.08 68 1012.5
20260505174004 52 63 7.0 20.0 0.01 0.12 0.08 69 1012.5
20260505173804 52 60 7.0 20.0 0.01 0.12 0.08 70 1012.4
20260505173704 52 62 7.0 20.0 0.01 0.12 0.08 68 1012.4
20260505173604 51 63 7.0 20.0 0.01 0.12 0.08 68 1012.3
20260505173404 51 64 6.0 20.0 0.01 0.12 0.08 69 1012.3
20260505173304 51 63 6.0 14.0 0.01 0.12 0.08 70 1012.3
20260505173104 51 65 6.0 14.0 0.01 0.12 0.08 69 1012.2
20260505173004 51 65 6.0 14.0 0.01 0.12 0.08 70 1012.2
20260505172804 51 73 6.0 13.0 0.01 0.12 0.08 70 1012.3
20260505172704 51 72 6.0 13.0 0.01 0.12 0.08 71 1012.4
20260505172604 51 72 6.0 17.0 0.01 0.12 0.08 71 1012.5
20260505172504 51 72 6.0 17.0 0.01 0.12 0.08 70 1012.5
20260505172404 51 74 6.0 17.0 0.01 0.12 0.08 71 1012.6
20260505172306 51 72 6.0 17.0 0.01 0.12 0.08 71 1012.7
20260505172204 50 72 7.0 17.0 0.01 0.12 0.08 71 1012.6
20260505172104 50 72 7.0 19.0 0.01 0.12 0.08 71 1012.6
20260505171904 50 74 7.0 19.0 0.01 0.12 0.08 71 1012.6
20260505171804 50 71 8.0 19.0 0.01 0.12 0.08 71 1012.6
20260505171705 50 67 8.0 19.0 0.01 0.12 0.08 71 1012.5
20260505171604 50 64 7.0 19.0 0.01 0.12 0.08 70 1012.5
20260505171404 50 62 7.0 19.0 0.01 0.12 0.08 71 1012.4
20260505171305 50 64 7.0 19.0 0.01 0.12 0.08 70 1012.4
20260505171204 50 64 6.0 19.0 0.01 0.12 0.08 69 1012.4
20260505171104 51 59 6.0 18.0 0.01 0.12 0.08 70 1012.5
20260505171004 51 60 6.0 18.0 0.01 0.12 0.08 69 1012.5
20260505170904 51 60 6.0 18.0 0.01 0.12 0.08 69 1012.5
20260505170804 51 63 6.0 18.0 0.01 0.12 0.08 69 1012.5
20260505170704 51 68 5.0 18.0 0.01 0.12 0.08 70 1012.5
20260505170604 51 70 5.0 16.0 0.01 0.12 0.08 72 1012.5
20260505170504 50 72 5.0 16.0 0.01 0.12 0.08 71 1012.5
20260505170304 50 67 6.0 16.0 0.01 0.12 0.08 70 1012.5
20260505170204 50 68 6.0 16.0 0.01 0.12 0.08 69 1012.5
20260505170104 50 70 6.0 16.0 0.01 0.12 0.08 71 1012.5
20260505170004 50 70 6.0 15.0 0.01 0.12 0.08 70 1012.5
20260505165905 50 69 6.0 15.0 0.01 0.12 0.08 71 1012.5
20260505165805 50 68 6.0 15.0 0.01 0.12 0.08 71 1012.6
20260505165705 50 67 7.0 25.0 0.01 0.12 0.08 71 1012.6
20260505165605 50 66 7.0 26.0 0.01 0.12 0.08 70 1012.4
20260505165505 50 63 7.0 26.0 0.01 0.12 0.08 71 1012.5
20260505165405 50 66 6.0 26.0 0.01 0.12 0.08 70 1012.4
20260505165306 50 65 6.0 26.0 0.01 0.12 0.08 71 1012.5
20260505165204 50 65 6.0 26.0 0.01 0.12 0.08 71 1012.5
20260505165104 50 67 7.0 26.0 0.01 0.12 0.08 71 1012.3
20260505165005 50 65 6.0 26.0 0.01 0.12 0.08 70 1012.3
20260505164904 51 63 6.0 26.0 0.01 0.12 0.08 69 1012.4
20260505164804 51 63 5.0 26.0 0.01 0.12 0.08 70 1012.3
20260505164704 51 64 5.0 26.0 0.00 0.11 0.07 71 1012.4
20260505164604 51 67 5.0 20.0 0.00 0.11 0.07 71 1012.4
20260505164504 51 69 5.0 20.0 0.00 0.11 0.07 71 1012.5
20260505164404 51 69 5.0 20.0 0.00 0.11 0.07 70 1012.5
20260505164304 51 71 5.0 20.0 0.00 0.11 0.07 69 1012.5
20260505164204 51 70 6.0 20.0 0.00 0.11 0.07 68 1012.5
20260505164104 52 65 5.0 20.0 0.00 0.11 0.07 68 1012.6
20260505164004 52 68 5.0 19.0 0.00 0.11 0.07 68 1012.5
20260505163904 52 69 5.0 19.0 0.00 0.11 0.07 68 1012.5
20260505163804 52 68 5.0 19.0 0.00 0.11 0.07 68 1012.5
20260505163704 52 67 6.0 19.0 0.00 0.11 0.07 67 1012.4
20260505163404 52 70 6.0 19.0 0.00 0.11 0.07 65 1012.3
20260505163204 52 63 7.0 18.0 0.00 0.11 0.07 64 1012.4
20260505163004 52 58 7.0 17.0 0.00 0.11 0.07 66 1012.5
20260505162904 52 55 8.0 17.0 0.00 0.11 0.07 65 1012.5
20260505162804 52 52 8.0 17.0 0.00 0.11 0.07 65 1012.5
20260505162704 52 48 7.0 17.0 0.00 0.11 0.07 65 1012.4
20260505162604 52 45 7.0 15.0 0.00 0.11 0.07 65 1012.5
20260505162504 52 41 6.0 20.0 0.00 0.11 0.07 65 1012.5
20260505162405 52 37 6.0 20.0 0.00 0.11 0.07 64 1012.5
20260505162307 52 40 6.0 20.0 0.00 0.11 0.07 64 1012.6
20260505162205 52 37 5.0 20.0 0.00 0.11 0.07 64 1012.5
20260505162104 52 39 5.0 20.0 0.00 0.11 0.07 64 1012.5
20260505162004 52 41 4.0 20.0 0.00 0.11 0.07 64 1012.5
20260505161904 52 46 4.0 20.0 0.00 0.11 0.07 64 1012.6
20260505161604 52 64 5.0 20.0 0.00 0.11 0.07 64 1012.6
20260505161504 52 67 6.0 20.0 0.00 0.11 0.07 64 1012.6
20260505161205 52 72 8.0 20.0 0.00 0.11 0.07 62 1012.6
20260505161104 52 74 9.0 23.0 0.00 0.11 0.07 62 1012.5
20260505161004 52 75 9.0 23.0 0.00 0.11 0.07 62 1012.5
20260505160904 52 75 10.0 23.0 0.00 0.11 0.07 61 1012.5
20260505160804 52 75 9.0 23.0 0.00 0.11 0.07 61 1012.5
20260505160705 52 72 10.0 23.0 0.00 0.11 0.07 61 1012.3
20260505160604 52 72 10.0 23.0 0.00 0.11 0.07 61 1012.4
20260505160505 52 71 9.0 23.0 0.00 0.11 0.07 61 1012.4
20260505160404 52 70 10.0 23.0 0.00 0.11 0.07 60 1012.3
20260505160304 52 70 10.0 23.0 0.00 0.11 0.07 60 1012.4
20260505160204 52 69 9.0 23.0 0.00 0.11 0.07 59 1012.2
20260505160104 52 67 9.0 21.0 0.00 0.11 0.07 59 1012.3
20260505153304 53 79 8.0 25.0 0.00 0.11 0.07 59 1011.8
20260505153204 53 81 7.0 25.0 0.00 0.11 0.07 59 1011.6
20260505153104 53 79 8.0 25.0 0.00 0.11 0.07 60 1011.7
20260505153004 53 78 8.0 25.0 0.00 0.11 0.07 60 1011.7
20260505152904 53 78 9.0 25.0 0.00 0.11 0.07 59 1011.7
20260505152804 53 78 9.0 28.0 0.00 0.11 0.07 60 1011.7
20260505152605 53 77 10.0 28.0 0.00 0.11 0.07 59 1011.4
20260505152505 53 75 9.0 28.0 0.00 0.11 0.07 60 1011.4
20260505152405 53 76 9.0 28.0 0.00 0.11 0.07 60 1011.3
20260505152305 53 76 9.0 28.0 0.00 0.11 0.07 60 1011.4
20260505152205 53 75 9.0 28.0 0.00 0.11 0.07 60 1011.2
20260505152005 53 74 8.0 28.0 0.00 0.11 0.07 59 1011.2
20260505151905 53 76 7.0 28.0 0.00 0.11 0.07 59 1011.3
20260505151805 53 74 7.0 27.0 0.00 0.11 0.07 59 1011.2
20260505151704 53 72 6.0 20.0 0.00 0.11 0.07 60 1011.3
20260505151604 53 74 6.0 16.0 0.00 0.11 0.07 60 1011.3
20260505151505 53 78 6.0 22.0 0.00 0.11 0.07 61 1011.3
20260505151404 53 76 6.0 25.0 0.00 0.11 0.07 60 1011.3
20260505151304 53 77 6.0 25.0 0.00 0.11 0.07 61 1011.3
20260505151204 53 79 6.0 25.0 0.00 0.11 0.07 61 1011.3
20260505151104 53 80 6.0 25.0 0.00 0.11 0.07 61 1011.3
20260505151004 53 83 6.0 25.0 0.00 0.11 0.07 61 1011.3
20260505150904 53 81 7.0 25.0 0.00 0.11 0.07 61 1011.3
20260505150804 53 82 7.0 25.0 0.00 0.11 0.07 60 1011.3
20260505150604 53 80 8.0 25.0 0.00 0.11 0.07 60 1011.2
20260505150504 53 81 7.0 25.0 0.00 0.11 0.07 61 1011.2
20260505150404 53 81 8.0 19.0 0.00 0.11 0.07 61 1011.2
20260505150304 53 82 8.0 19.0 0.00 0.11 0.07 61 1011.2
20260505150204 53 80 9.0 20.0 0.00 0.11 0.07 61 1011.2
20260505150104 53 81 9.0 22.0 0.00 0.11 0.07 61 1011.3
20260505140604 53 79 6.0 18.0 0.00 0.11 0.07 60 1011.6
20260505140504 53 82 6.0 18.0 0.00 0.11 0.07 60 1011.6
20260505140304 53 78 6.0 24.0 0.00 0.11 0.07 60 1011.4
20260505140204 53 78 6.0 24.0 0.00 0.11 0.07 60 1011.4
20260505140104 53 74 6.0 24.0 0.00 0.11 0.07 60 1011.4
20260505130305 53 77 6.0 20.0 0.00 0.11 0.07 58 1010.3
20260505130205 53 77 6.0 20.0 0.00 0.11 0.07 58 1010.3
20260505130105 53 77 7.0 20.0 0.00 0.11 0.07 58 1010.3
20260505125005 53 80 9.0 21.0 0.00 0.11 0.07 56 1009.6
20260505124805 53 81 8.0 26.0 0.00 0.11 0.07 56 1009.7
20260505124705 53 81 8.0 26.0 0.00 0.11 0.07 56 1009.8
20260505124605 53 80 7.0 26.0 0.00 0.11 0.07 56 1009.8
20260505124505 53 78 7.0 26.0 0.00 0.11 0.07 56 1009.7
20260505124405 53 75 7.0 26.0 0.00 0.11 0.07 56 1009.7
20260505124305 54 76 6.0 26.0 0.00 0.11 0.07 56 1009.4
20260505124205 53 74 7.0 26.0 0.00 0.11 0.07 56 1009.5
20260505124105 53 75 7.0 26.0 0.00 0.11 0.07 56 1009.5
20260505124004 53 75 7.0 26.0 0.00 0.11 0.07 56 1009.4
20260505123904 53 75 7.0 26.0 0.00 0.11 0.07 56 1009.5
20260505123804 53 74 7.0 19.0 0.00 0.11 0.07 57 1009.4
20260505123704 53 72 7.0 19.0 0.00 0.11 0.07 56 1009.5
20260505123605 53 72 8.0 19.0 0.00 0.11 0.07 56 1009.4
20260505123505 53 72 8.0 19.0 0.00 0.11 0.07 56 1009.4
20260505123405 53 70 8.0 19.0 0.00 0.11 0.07 56 1009.4
20260505123305 53 69 8.0 19.0 0.00 0.11 0.07 56 1009.5
20260505123205 54 68 8.0 19.0 0.00 0.11 0.07 56 1009.5
20260505123105 54 65 8.0 19.0 0.00 0.11 0.07 56 1009.4
20260505123005 54 62 7.0 19.0 0.00 0.11 0.07 56 1009.5
20260505122805 54 57 6.0 19.0 0.00 0.11 0.07 56 1009.6
20260505122705 54 59 6.0 19.0 0.00 0.11 0.07 56 1009.6
20260505122605 54 60 6.0 19.0 0.00 0.11 0.07 56 1009.6
20260505122505 54 59 6.0 19.0 0.00 0.11 0.07 56 1009.6
20260505122405 54 60 5.0 18.0 0.00 0.11 0.07 56 1009.6
20260505122306 54 61 6.0 18.0 0.00 0.11 0.07 57 1009.5
20260505122205 54 59 6.0 21.0 0.00 0.11 0.07 57 1009.5
20260505122005 54 62 6.0 21.0 0.00 0.11 0.07 57 1009.6
20260505121905 54 62 6.0 21.0 0.00 0.11 0.07 57 1009.6
20260505121805 54 64 7.0 21.0 0.00 0.11 0.07 57 1009.7
20260505121704 54 63 6.0 21.0 0.00 0.11 0.07 57 1009.7
20260505121505 54 64 6.0 21.0 0.00 0.11 0.07 56 1009.6
20260505121405 54 64 6.0 21.0 0.00 0.11 0.07 56 1009.6
20260505121305 54 63 5.0 21.0 0.00 0.11 0.07 56 1009.5
20260505121205 54 69 5.0 19.0 0.00 0.11 0.07 56 1009.5
20260505121104 54 68 4.0 19.0 0.00 0.11 0.07 56 1009.5
20260505121004 54 64 4.0 19.0 0.00 0.11 0.07 57 1009.6
20260505120904 54 63 5.0 12.0 0.00 0.11 0.07 57 1009.5
20260505120804 54 59 5.0 16.0 0.00 0.11 0.07 57 1009.5
20260505120705 54 62 6.0 18.0 0.00 0.11 0.07 57 1009.5
20260505120605 54 64 6.0 18.0 0.00 0.11 0.07 57 1009.5
20260505120305 54 62 7.0 19.0 0.00 0.11 0.07 57 1009.4
20260505120205 54 60 6.0 19.0 0.00 0.11 0.07 56 1009.4
20260505120104 54 63 6.0 19.0 0.00 0.11 0.07 57 1009.4
20260505115904 54 66 6.0 19.0 0.00 0.11 0.07 56 1009.3
20260505115804 54 67 5.0 19.0 0.00 0.11 0.07 56 1009.3
20260505115704 54 65 5.0 19.0 0.00 0.11 0.07 57 1009.2
20260505115605 54 60 5.0 19.0 0.00 0.11 0.07 57 1009.2
20260505115505 54 61 6.0 22.0 0.00 0.11 0.07 57 1009.2
20260505115405 54 68 5.0 24.0 0.00 0.11 0.07 57 1009.2
20260505115305 54 66 6.0 24.0 0.00 0.11 0.07 57 1009.2
20260505115205 54 67 6.0 24.0 0.00 0.11 0.07 57 1009.1
20260505115105 54 65 6.0 24.0 0.00 0.11 0.07 57 1009.1
20260505115005 54 65 7.0 24.0 0.00 0.11 0.07 57 1009.1
20260505114905 54 62 7.0 24.0 0.00 0.11 0.07 57 1009.1
20260505114805 54 62 7.0 24.0 0.00 0.11 0.07 57 1009.2
20260505114705 54 62 7.0 24.0 0.00 0.11 0.07 56 1009.2
20260505114505 54 66 6.0 24.0 0.00 0.11 0.07 56 1009.0
20260505114404 54 62 6.0 17.0 0.00 0.11 0.07 56 1009.0
20260505114205 54 64 6.0 17.0 0.00 0.11 0.07 56 1009.0
20260505114105 54 64 5.0 17.0 0.00 0.11 0.07 56 1009.0
20260505114005 54 63 5.0 16.0 0.00 0.11 0.07 57 1009.1
20260505113905 54 66 5.0 16.0 0.00 0.11 0.07 57 1009.0
20260505113805 54 65 5.0 16.0 0.00 0.11 0.07 57 1009.0
20260505113705 54 64 4.0 16.0 0.00 0.11 0.07 56 1009.0
20260505113605 54 65 4.0 16.0 0.00 0.11 0.07 57 1009.1
20260505113305 54 64 5.0 19.0 0.00 0.11 0.07 56 1009.0
20260505113205 54 66 5.0 19.0 0.00 0.11 0.07 57 1008.9
20260505113105 54 66 5.0 19.0 0.00 0.11 0.07 56 1008.9
20260505113005 54 66 5.0 19.0 0.00 0.11 0.07 55 1008.9
20260505112904 54 69 5.0 19.0 0.00 0.11 0.07 55 1008.8
20260505112704 54 72 5.0 19.0 0.00 0.11 0.07 54 1008.9
20260505112604 55 73 6.0 19.0 0.00 0.11 0.07 54 1008.8
20260505112405 55 72 5.0 19.0 0.00 0.11 0.07 53 1008.8
20260505112305 55 79 5.0 18.0 0.00 0.11 0.07 54 1008.8
20260505112105 55 70 5.0 15.0 0.00 0.11 0.07 54 1008.7
20260505112005 55 70 5.0 15.0 0.00 0.11 0.07 54 1008.6
20260505111905 55 68 6.0 15.0 0.00 0.11 0.07 54 1008.7
20260505111605 55 69 6.0 15.0 0.00 0.11 0.07 53 1008.4
20260505111505 55 68 7.0 18.0 0.00 0.11 0.07 54 1008.4
20260505111305 55 66 7.0 19.0 0.00 0.11 0.07 54 1008.3
20260505111205 55 69 7.0 24.0 0.00 0.11 0.07 54 1008.3
20260505111104 55 71 7.0 24.0 0.00 0.11 0.07 54 1008.3
20260505111005 55 70 7.0 24.0 0.00 0.11 0.07 53 1008.3
20260505110904 55 69 6.0 24.0 0.00 0.11 0.07 53 1008.2
20260505110605 55 68 7.0 24.0 0.00 0.11 0.07 53 1008.1
20260505110504 55 69 7.0 24.0 0.00 0.11 0.07 53 1008.2
20260505110304 55 72 6.0 24.0 0.00 0.11 0.07 53 1008.2
20260505110204 55 71 7.0 19.0 0.00 0.11 0.07 54 1008.1
20260505110104 55 72 7.0 19.0 0.00 0.11 0.07 53 1008.1